Flag for U.S.A. Weather past 2 weeks in Nashville, Tennessee, U.S.A.

Now
54 °F

Light rain. Mostly cloudy.


Feels Like: 49 °F
Forecast: 44 / 56 °F
Wind: 21 mph from South

Location: Nashville International Airport

Current Time: Feb 1, 2015 at 4:56:03 PM

Latest Report: Feb 1, 2015 at 3:53 PM


Visibility: 7 mi

Pressure: 29.67 "Hg

Humidity: 93%

Dew point: 52 °F

Location of NashvilleLocation

Historic Weather in Nashville — Graph

°F

Nashville temperature yesterday

Maximum temperature yesterday: 46 °F (at 1:53 PM)
Minimum temperature yesterday: 24 °F (at 4:53 AM)
Average temperature yesterday: 37 °F

Past Weeks' High & Low Weather Summary

 TemperatureHumidityPressure
High67 °F (Jan 19, 2:53 PM)97% (Jan 23, 11:53 AM)30.50 "Hg (Jan 23, 11:53 AM)
Low24 °F (Jan 31, 4:53 AM)20% (Jan 19, 2:53 PM)29.63 "Hg (Jan 25, 2:53 PM)
Average43 °F62%30.09 "Hg
* Reported Jan 17 3:53 PM — Feb 1 3:53 PM, Nashville, Weather by CustomWeather, © 2014

Note: Actual official high and low records may vary slightly from our data, if they occured in-between our weather recording intervals... More about our weather records

Advertising

Nashville weather history for previous 24 hours

 ConditionsComfort  
Time TempWeatherWind HumidityBarometerVisibility
3:53 PM
Feb 1
54 °FLight rain. Mostly cloudy.21 mph93%29.67 "Hg7 mi
3:04 PM54 °FLight rain. Mostly cloudy.18 mph94%29.70 "Hg9 mi
2:53 PM53 °FRain. Fog.17 mph93%29.70 "Hg5 mi
1:53 PM52 °FLight rain. Fog.16 mph93%29.75 "Hg5 mi
12:53 PM50 °FLight rain. Fog.14 mph89%29.77 "Hg6 mi
11:53 AM48 °FLight rain. Fog.17 mph89%29.82 "Hg2 mi
10:53 AM46 °FMostly cloudy.16 mph86%29.87 "Hg10 mi
9:53 AM45 °FLight rain. Overcast.21 mph76%29.93 "Hg10 mi
8:53 AM47 °FMostly cloudy.16 mph61%29.99 "Hg10 mi
7:53 AM48 °FLight rain. More clouds than sun.12 mph50%30.01 "Hg10 mi
6:53 AM49 °FMostly cloudy.16 mph41%30.02 "Hg10 mi
5:53 AM48 °FOvercast.14 mph36%30.03 "Hg10 mi
4:53 AM47 °FOvercast.9 mph36%30.04 "Hg10 mi
3:53 AM48 °FOvercast.10 mph33%30.06 "Hg10 mi
2:53 AM47 °FOvercast.9 mph33%30.09 "Hg10 mi
1:53 AM46 °FOvercast.3 mph33%30.11 "Hg10 mi
12:53 AM43 °FOvercast.6 mph38%30.13 "Hg10 mi
11:53 PM
Jan 31
41 °FMostly cloudy.No wind43%30.16 "Hg10 mi
10:53 PM41 °FMostly cloudy.7 mph45%30.19 "Hg10 mi
9:53 PM40 °FOvercast.5 mph49%30.22 "Hg10 mi
8:53 PM42 °FOvercast.3 mph43%30.24 "Hg10 mi
7:53 PM43 °FOvercast.No wind35%30.26 "Hg10 mi
6:53 PM43 °FOvercast.3 mph34%30.27 "Hg10 mi
5:53 PM44 °FMostly cloudy.No wind32%30.29 "Hg10 mi
4:53 PM45 °FOvercast.6 mph28%30.28 "Hg10 mi
Weather by CustomWeather, © 2014

See weather overviewHow to use our weather pages